• en Suisse
  • Liste des pays
  • À 7 jours
  • Température de l'eau
  • Carte satellitaire
  • Carte météo
  • Widgets météo
  • user-avatar
    Se connecter

    Météo par heure à Novyy Akbulyak

    Ce jour, 24 Septembre, Lundi

    Heure Température Précipitation Vent Pression Humidité
    00:00 +14°C° 0 mm 2 m/s 748 mmHg 96%
    01:00 +14°C° 0 mm 2 m/s 748 mmHg 96%
    02:00 +13°C° 0 mm 2 m/s 748 mmHg 96%
    03:00 +13°C° 0 mm 2 m/s 747 mmHg 96%
    04:00 +13°C° 0 mm 2 m/s 747 mmHg 97%
    05:00 +13°C° 0 mm 2 m/s 747 mmHg 97%
    06:00 +13°C° 0 mm 2 m/s 747 mmHg 97%
    07:00 +12°C° 0 mm 3 m/s 747 mmHg 97%
    08:00 +14°C° 0 mm 3 m/s 747 mmHg 92%
    09:00 +17°C° 0 mm 3 m/s 747 mmHg 87%
    10:00 +18°C° 0 mm 4 m/s 747 mmHg 81%
    11:00 +19°C° 0.1 mm 4 m/s 747 mmHg 76%
    12:00 +20°C° 0.1 mm 4 m/s 747 mmHg 71%
    13:00 +22°C° 0.1 mm 4 m/s 747 mmHg 66%
    14:00 +21°C° 0.2 mm 4 m/s 747 mmHg 68%
    15:00 +21°C° 0.2 mm 3 m/s 747 mmHg 70%
    16:00 +21°C° 0.2 mm 3 m/s 746 mmHg 72%
    17:00 +19°C° 0.2 mm 3 m/s 746 mmHg 78%
    18:00 +18°C° 0.2 mm 3 m/s 747 mmHg 84%
    19:00 +16°C° 0.2 mm 3 m/s 747 mmHg 90%
    20:00 +16°C° 0 mm 3 m/s 747 mmHg 91%
    21:00 +14°C° 0 mm 3 m/s 747 mmHg 92%
    22:00 +14°C° 0 mm 3 m/s 747 mmHg 92%
    23:00 +13°C° 0 mm 3 m/s 747 mmHg 92%

    Demain, 25 Septembre, Mardi

    Heure Température Précipitation Vent Pression Humidité
    00:00 +13°C° 0 mm 3 m/s 747 mmHg 92%
    01:00 +13°C° 0 mm 3 m/s 746 mmHg 91%
    02:00 +12°C° 0 mm 3 m/s 747 mmHg 90%
    03:00 +12°C° 0 mm 3 m/s 747 mmHg 90%
    04:00 +12°C° 0 mm 3 m/s 747 mmHg 89%
    05:00 +12°C° 0 mm 3 m/s 747 mmHg 87%
    06:00 +12°C° 0 mm 3 m/s 747 mmHg 85%
    07:00 +12°C° 0 mm 3 m/s 747 mmHg 83%
    08:00 +14°C° 0 mm 4 m/s 747 mmHg 75%
    09:00 +15°C° 0 mm 5 m/s 747 mmHg 66%
    10:00 +17°C° 0 mm 5 m/s 746 mmHg 58%
    11:00 +19°C° 0 mm 6 m/s 746 mmHg 55%
    12:00 +20°C° 0 mm 6 m/s 746 mmHg 52%
    13:00 +21°C° 0 mm 6 m/s 746 mmHg 49%
    14:00 +21°C° 0 mm 6 m/s 746 mmHg 51%
    15:00 +21°C° 0 mm 5 m/s 746 mmHg 53%
    16:00 +21°C° 0 mm 4 m/s 746 mmHg 55%
    17:00 +19°C° 0 mm 4 m/s 746 mmHg 58%
    18:00 +18°C° 0 mm 4 m/s 746 mmHg 62%
    19:00 +15°C° 0 mm 4 m/s 746 mmHg 65%
    20:00 +15°C° 0 mm 4 m/s 746 mmHg 66%
    21:00 +15°C° 0 mm 4 m/s 746 mmHg 67%
    22:00 +14°C° 0 mm 4 m/s 746 mmHg 68%
    23:00 +14°C° 0 mm 4 m/s 746 mmHg 69%

    Après-demain, 26 Septembre, Mercredi

    Heure Température Précipitation Vent Pression Humidité
    00:00 +14°C° 0 mm 4 m/s 746 mmHg 70%
    01:00 +13°C° 0 mm 4 m/s 746 mmHg 71%
    02:00 +13°C° 0 mm 4 m/s 746 mmHg 71%
    03:00 +13°C° 0 mm 4 m/s 746 mmHg 70%
    04:00 +13°C° 0 mm 4 m/s 746 mmHg 70%
    05:00 +13°C° 0.1 mm 4 m/s 746 mmHg 70%
    06:00 +13°C° 0.1 mm 4 m/s 746 mmHg 71%
    07:00 +13°C° 0.1 mm 4 m/s 746 mmHg 72%
    08:00 +14°C° 0 mm 5 m/s 746 mmHg 69%
    09:00 +15°C° 0 mm 5 m/s 747 mmHg 65%
    10:00 +16°C° 0 mm 6 m/s 747 mmHg 62%
    11:00 +16°C° 0 mm 6 m/s 747 mmHg 60%
    12:00 +16°C° 0 mm 6 m/s 747 mmHg 59%
    13:00 +17°C° 0 mm 6 m/s 747 mmHg 58%
    14:00 +16°C° 0.1 mm 5 m/s 748 mmHg 62%
    15:00 +15°C° 0.1 mm 4 m/s 748 mmHg 67%
    16:00 +16°C° 0.1 mm 3 m/s 748 mmHg 71%
    17:00 +13°C° 0.4 mm 3 m/s 748 mmHg 78%
    18:00 +13°C° 0.4 mm 2 m/s 748 mmHg 85%
    19:00 +12°C° 0.4 mm 2 m/s 748 mmHg 91%
    20:00 +12°C° 0.1 mm 2 m/s 748 mmHg 92%
    21:00 +10°C° 0.1 mm 2 m/s 749 mmHg 92%
    22:00 +10°C° 0.1 mm 2 m/s 749 mmHg 92%
    23:00 +10°C° 0.3 mm 2 m/s 749 mmHg 93%

    27 Septembre, Jeudi

    Heure Température Précipitation Vent Pression Humidité
    00:00 +9°C° 0.3 mm 2 m/s 748 mmHg 93%
    01:00 +9°C° 0.3 mm 2 m/s 748 mmHg 94%
    02:00 +9°C° 0.3 mm 2 m/s 748 mmHg 94%
    03:00 +9°C° 0.3 mm 2 m/s 748 mmHg 94%
    04:00 +8°C° 0.3 mm 2 m/s 748 mmHg 94%
    05:00 +8°C° 0.2 mm 3 m/s 748 mmHg 94%
    06:00 +8°C° 0.2 mm 3 m/s 748 mmHg 93%
    07:00 +8°C° 0.2 mm 3 m/s 748 mmHg 93%
    08:00 +8°C° 0.1 mm 4 m/s 748 mmHg 88%
    09:00 +8°C° 0.1 mm 4 m/s 747 mmHg 83%
    10:00 +9°C° 0.1 mm 5 m/s 747 mmHg 78%
    11:00 +9°C° 0 mm 5 m/s 747 mmHg 75%
    12:00 +9°C° 0 mm 5 m/s 747 mmHg 72%
    13:00 +9°C° 0 mm 5 m/s 746 mmHg 69%
    14:00 +9°C° 0 mm 5 m/s 746 mmHg 71%
    15:00 +10°C° 0 mm 4 m/s 746 mmHg 72%
    16:00 +8°C° 0 mm 4 m/s 745 mmHg 74%
    17:00 +7°C° 0 mm 4 m/s 745 mmHg 76%
    18:00 +7°C° 0 mm 4 m/s 745 mmHg 78%
    19:00 +6°C° 0 mm 4 m/s 745 mmHg 80%
    20:00 +6°C° 0 mm 4 m/s 744 mmHg 78%
    21:00 +6°C° 0 mm 4 m/s 744 mmHg 76%
    22:00 +5°C° 0 mm 5 m/s 743 mmHg 74%
    23:00 +5°C° 0 mm 5 m/s 743 mmHg 73%

    28 Septembre, Vendredi

    Heure Température Précipitation Vent Pression Humidité
    00:00 +5°C° 0 mm 5 m/s 742 mmHg 72%
    01:00 +5°C° 0 mm 5 m/s 741 mmHg 72%
    02:00 +4°C° 0.4 mm 6 m/s 741 mmHg 75%
    03:00 +4°C° 0.4 mm 6 m/s 740 mmHg 79%
    04:00 +4°C° 0.4 mm 6 m/s 740 mmHg 83%
    05:00 +4°C° 0.6 mm 6 m/s 739 mmHg 85%
    06:00 +4°C° 0.6 mm 6 m/s 739 mmHg 87%
    07:00 +3°C° 0.6 mm 6 m/s 738 mmHg 89%
    08:00 +4°C° 0.4 mm 6 m/s 738 mmHg 88%
    09:00 +4°C° 0.4 mm 6 m/s 738 mmHg 88%
    10:00 +6°C° 0.4 mm 5 m/s 738 mmHg 87%
    11:00 +5°C° 0.6 mm 6 m/s 738 mmHg 83%
    12:00 +7°C° 0.6 mm 6 m/s 739 mmHg 79%
    13:00 +8°C° 0.6 mm 6 m/s 739 mmHg 75%
    14:00 +8°C° 0.3 mm 6 m/s 739 mmHg 73%
    15:00 +8°C° 0.3 mm 5 m/s 740 mmHg 72%
    16:00 +8°C° 0.3 mm 5 m/s 740 mmHg 71%
    17:00 +7°C° 0 mm 4 m/s 740 mmHg 75%
    18:00 +6°C° 0 mm 4 m/s 741 mmHg 80%
    19:00 +4°C° 0 mm 3 m/s 741 mmHg 84%
    20:00 +5°C° 0 mm 3 m/s 741 mmHg 85%
    21:00 +5°C° 0 mm 3 m/s 741 mmHg 85%
    22:00 +5°C° 0 mm 3 m/s 741 mmHg 86%
    23:00 +5°C° 0.5 mm 4 m/s 740 mmHg 88%

    29 Septembre, Samedi

    Heure Température Précipitation Vent Pression Humidité
    00:00 +5°C° 0.5 mm 4 m/s 739 mmHg 91%
    01:00 +5°C° 0.5 mm 4 m/s 737 mmHg 93%
    02:00 +6°C° 1.7 mm 5 m/s 736 mmHg 93%
    03:00 +7°C° 1.7 mm 5 m/s 735 mmHg 93%
    04:00 +8°C° 1.7 mm 6 m/s 734 mmHg 93%
    05:00 +6°C° 0.5 mm 7 m/s 734 mmHg 91%
    06:00 +6°C° 0.5 mm 8 m/s 734 mmHg 88%
    07:00 +6°C° 0.5 mm 9 m/s 734 mmHg 86%
    08:00 +6°C° 0.1 mm 9 m/s 736 mmHg 85%
    09:00 +5°C° 0.1 mm 8 m/s 737 mmHg 84%
    10:00 +5°C° 0.1 mm 8 m/s 738 mmHg 83%
    11:00 +5°C° 0.1 mm 8 m/s 740 mmHg 81%
    12:00 +5°C° 0.1 mm 8 m/s 741 mmHg 78%
    13:00 +5°C° 0.1 mm 8 m/s 743 mmHg 75%
    14:00 +5°C° 0 mm 7 m/s 744 mmHg 73%
    15:00 +7°C° 0 mm 6 m/s 745 mmHg 71%
    16:00 +7°C° 0 mm 5 m/s 746 mmHg 68%
    17:00 +6°C° 0 mm 4 m/s 746 mmHg 72%
    18:00 +5°C° 0 mm 3 m/s 747 mmHg 76%
    19:00 +5°C° 0 mm 2 m/s 748 mmHg 80%
    20:00 +4°C° 0 mm 2 m/s 748 mmHg 83%
    21:00 +4°C° 0 mm 2 m/s 749 mmHg 85%
    22:00 +3°C° 0 mm 2 m/s 749 mmHg 87%
    23:00 +4°C° 0 mm 1 m/s 749 mmHg 87%
    Voir plus